owner,sensor,date,latitude,longitude,vertical_datum,sea_water_practical_salinity,qcFlag 
DISL,ioos:station:DISL:BSCA:1,2017-06-01T00:00:00Z,30.3288,-87.8293,2.091,4.76,1111122 
DISL,ioos:station:DISL:BSCA:1,2017-06-01T00:30:00Z,30.3288,-87.8293,2.05,4.7,1111122 
DISL,ioos:station:DISL:BSCA:1,2017-06-01T01:00:00Z,30.3288,-87.8293,2.019,4.76,1111122 
DISL,ioos:station:DISL:BSCA:1,2017-06-01T01:30:00Z,30.3288,-87.8293,1.975,4.67,1111122 
DISL,ioos:station:DISL:BSCA:1,2017-06-01T02:00:00Z,30.3288,-87.8293,1.957,4.63,1111122 
DISL,ioos:station:DISL:BSCA:1,2017-06-01T02:30:00Z,30.3288,-87.8293,1.934,4.58,1111122 
DISL,ioos:station:DISL:BSCA:1,2017-06-01T03:00:00Z,30.3288,-87.8293,1.923,4.48,1111122 
DISL,ioos:station:DISL:BSCA:1,2017-06-01T03:30:00Z,30.3288,-87.8293,1.905,4.47,1111122 
DISL,ioos:station:DISL:BSCA:1,2017-06-01T04:00:00Z,30.3288,-87.8293,1.891,4.46,1111122 
DISL,ioos:station:DISL:BSCA:1,2017-06-01T04:30:00Z,30.3288,-87.8293,1.857,4.46,1111122 
DISL,ioos:station:DISL:BSCA:1,2017-06-01T05:00:00Z,30.3288,-87.8293,1.841,4.43,1111122 
DISL,ioos:station:DISL:BSCA:1,2017-06-01T05:30:00Z,30.3288,-87.8293,1.82,4.35,1111122 
DISL,ioos:station:DISL:BSCA:1,2017-06-01T06:00:00Z,30.3288,-87.8293,1.8,4.34,1111122 
DISL,ioos:station:DISL:BSCA:1,2017-06-01T06:30:00Z,30.3288,-87.8293,1.802,4.35,1111122 
DISL,ioos:station:DISL:BSCA:1,2017-06-01T07:00:00Z,30.3288,-87.8293,1.773,4.35,1111122 
DISL,ioos:station:DISL:BSCA:1,2017-06-01T07:30:00Z,30.3288,-87.8293,1.785,4.31,1111122 
DISL,ioos:station:DISL:BSCA:1,2017-06-01T08:00:00Z,30.3288,-87.8293,1.782,4.3,1111122 
DISL,ioos:station:DISL:BSCA:1,2017-06-01T08:30:00Z,30.3288,-87.8293,1.791,4.23,1111122 
DISL,ioos:station:DISL:BSCA:1,2017-06-01T09:00:00Z,30.3288,-87.8293,1.802,4.17,1111122 
DISL,ioos:station:DISL:BSCA:1,2017-06-01T09:30:00Z,30.3288,-87.8293,1.804,4.13,1111122 
DISL,ioos:station:DISL:BSCA:1,2017-06-01T10:00:00Z,30.3288,-87.8293,1.796,4.2,1111122 
DISL,ioos:station:DISL:BSCA:1,2017-06-01T10:30:00Z,30.3288,-87.8293,1.804,4.25,1111122 
DISL,ioos:station:DISL:BSCA:1,2017-06-01T11:00:00Z,30.3288,-87.8293,1.806,4.08,1111122 
DISL,ioos:station:DISL:BSCA:1,2017-06-01T11:30:00Z,30.3288,-87.8293,1.843,4.04,1111122 
DISL,ioos:station:DISL:BSCA:1,2017-06-01T12:00:00Z,30.3288,-87.8293,1.867,4.13,1111122 
DISL,ioos:station:DISL:BSCA:1,2017-06-01T12:30:00Z,30.3288,-87.8293,1.907,4.21,1111122 
DISL,ioos:station:DISL:BSCA:1,2017-06-01T13:00:00Z,30.3288,-87.8293,1.933,4.21,1111122 
DISL,ioos:station:DISL:BSCA:1,2017-06-01T13:30:00Z,30.3288,-87.8293,1.95,4.58,1111122 
DISL,ioos:station:DISL:BSCA:1,2017-06-01T14:00:00Z,30.3288,-87.8293,1.956,4.51,1111122 
DISL,ioos:station:DISL:BSCA:1,2017-06-01T14:30:00Z,30.3288,-87.8293,1.99,4.38,1111122 
DISL,ioos:station:DISL:BSCA:1,2017-06-01T15:00:00Z,30.3288,-87.8293,2.006,4.37,1111122 
DISL,ioos:station:DISL:BSCA:1,2017-06-01T15:30:00Z,30.3288,-87.8293,2.02,4.21,1111122 
DISL,ioos:station:DISL:BSCA:1,2017-06-01T16:00:00Z,30.3288,-87.8293,2.033,4.05,1111122 
DISL,ioos:station:DISL:BSCA:1,2017-06-01T16:30:00Z,30.3288,-87.8293,2.048,4.02,1111122 
DISL,ioos:station:DISL:BSCA:1,2017-06-01T17:00:00Z,30.3288,-87.8293,2.066,4.0,1111122 
DISL,ioos:station:DISL:BSCA:1,2017-06-01T17:30:00Z,30.3288,-87.8293,2.069,4.06,1111122 
DISL,ioos:station:DISL:BSCA:1,2017-06-01T18:00:00Z,30.3288,-87.8293,2.088,4.31,1111122 
DISL,ioos:station:DISL:BSCA:1,2017-06-01T18:30:00Z,30.3288,-87.8293,2.083,4.45,1111122 
DISL,ioos:station:DISL:BSCA:1,2017-06-01T19:00:00Z,30.3288,-87.8293,2.086,4.61,1111122 
DISL,ioos:station:DISL:BSCA:1,2017-06-01T19:30:00Z,30.3288,-87.8293,2.081,4.63,1111122 
DISL,ioos:station:DISL:BSCA:1,2017-06-01T20:00:00Z,30.3288,-87.8293,2.052,4.81,1111122 
DISL,ioos:station:DISL:BSCA:1,2017-06-01T20:30:00Z,30.3288,-87.8293,2.043,4.93,1111122 
DISL,ioos:station:DISL:BSCA:1,2017-06-01T21:00:00Z,30.3288,-87.8293,2.017,4.8,1111122 
DISL,ioos:station:DISL:BSCA:1,2017-06-01T21:30:00Z,30.3288,-87.8293,2.02,4.77,1111122 
DISL,ioos:station:DISL:BSCA:1,2017-06-01T22:00:00Z,30.3288,-87.8293,2.011,4.84,1111122 
DISL,ioos:station:DISL:BSCA:1,2017-06-01T22:30:00Z,30.3288,-87.8293,2.006,4.72,1111122 
DISL,ioos:station:DISL:BSCA:1,2017-06-01T23:00:00Z,30.3288,-87.8293,1.998,4.78,1111122 
DISL,ioos:station:DISL:BSCA:1,2017-06-01T23:30:00Z,30.3288,-87.8293,1.987,4.8,1111122 
DISL,ioos:station:DISL:BSCA:1,2017-06-02T00:00:00Z,30.3288,-87.8293,1.979,4.76,1111122 
DISL,ioos:station:DISL:BSCA:1,2017-06-02T00:30:00Z,30.3288,-87.8293,1.971,4.61,1111122 
DISL,ioos:station:DISL:BSCA:1,2017-06-02T01:00:00Z,30.3288,-87.8293,1.964,4.62,1111122 
DISL,ioos:station:DISL:BSCA:1,2017-06-02T01:30:00Z,30.3288,-87.8293,1.959,4.73,1111122 
DISL,ioos:station:DISL:BSCA:1,2017-06-02T02:00:00Z,30.3288,-87.8293,1.951,4.6,1111122 
DISL,ioos:station:DISL:BSCA:1,2017-06-02T02:30:00Z,30.3288,-87.8293,1.935,4.59,1111122 
DISL,ioos:station:DISL:BSCA:1,2017-06-02T03:00:00Z,30.3288,-87.8293,1.942,4.61,1111122 
DISL,ioos:station:DISL:BSCA:1,2017-06-02T03:30:00Z,30.3288,-87.8293,1.925,4.56,1111122 
DISL,ioos:station:DISL:BSCA:1,2017-06-02T04:00:00Z,30.3288,-87.8293,1.925,4.65,1111122 
DISL,ioos:station:DISL:BSCA:1,2017-06-02T04:30:00Z,30.3288,-87.8293,1.909,4.67,1111122 
DISL,ioos:station:DISL:BSCA:1,2017-06-02T05:00:00Z,30.3288,-87.8293,1.894,4.75,1111122 
DISL,ioos:station:DISL:BSCA:1,2017-06-02T05:30:00Z,30.3288,-87.8293,1.877,4.62,1111122 
DISL,ioos:station:DISL:BSCA:1,2017-06-02T06:00:00Z,30.3288,-87.8293,1.857,4.45,1111122 
DISL,ioos:station:DISL:BSCA:1,2017-06-02T06:30:00Z,30.3288,-87.8293,1.84,4.5,1111122 
DISL,ioos:station:DISL:BSCA:1,2017-06-02T07:00:00Z,30.3288,-87.8293,1.834,4.32,1111122 
DISL,ioos:station:DISL:BSCA:1,2017-06-02T07:30:00Z,30.3288,-87.8293,1.834,4.36,1111122 
DISL,ioos:station:DISL:BSCA:1,2017-06-02T08:00:00Z,30.3288,-87.8293,1.861,4.31,1111122 
DISL,ioos:station:DISL:BSCA:1,2017-06-02T08:30:00Z,30.3288,-87.8293,1.874,4.45,1111122 
DISL,ioos:station:DISL:BSCA:1,2017-06-02T09:00:00Z,30.3288,-87.8293,1.898,4.73,1111122 
DISL,ioos:station:DISL:BSCA:1,2017-06-02T09:30:00Z,30.3288,-87.8293,1.918,4.77,1111122 
DISL,ioos:station:DISL:BSCA:1,2017-06-02T10:00:00Z,30.3288,-87.8293,1.933,4.95,1111122 
DISL,ioos:station:DISL:BSCA:1,2017-06-02T10:30:00Z,30.3288,-87.8293,1.954,4.72,1111122 
DISL,ioos:station:DISL:BSCA:1,2017-06-02T11:00:00Z,30.3288,-87.8293,1.966,4.86,1111122 
DISL,ioos:station:DISL:BSCA:1,2017-06-02T11:30:00Z,30.3288,-87.8293,1.976,5.24,1111122 
DISL,ioos:station:DISL:BSCA:1,2017-06-02T12:00:00Z,30.3288,-87.8293,1.994,5.22,1111122 
DISL,ioos:station:DISL:BSCA:1,2017-06-02T12:30:00Z,30.3288,-87.8293,2.012,5.24,1111122 
DISL,ioos:station:DISL:BSCA:1,2017-06-02T13:00:00Z,30.3288,-87.8293,2.032,5.24,1111122 
DISL,ioos:station:DISL:BSCA:1,2017-06-02T13:30:00Z,30.3288,-87.8293,2.04,5.43,1111122 
DISL,ioos:station:DISL:BSCA:1,2017-06-02T14:00:00Z,30.3288,-87.8293,2.055,5.51,1111122 
DISL,ioos:station:DISL:BSCA:1,2017-06-02T14:30:00Z,30.3288,-87.8293,2.063,5.7,1111122 
DISL,ioos:station:DISL:BSCA:1,2017-06-02T15:00:00Z,30.3288,-87.8293,2.067,5.82,1111122 
DISL,ioos:station:DISL:BSCA:1,2017-06-02T15:30:00Z,30.3288,-87.8293,2.063,6.09,1111122 
DISL,ioos:station:DISL:BSCA:1,2017-06-02T16:00:00Z,30.3288,-87.8293,2.062,5.79,1111122 
DISL,ioos:station:DISL:BSCA:1,2017-06-02T16:30:00Z,30.3288,-87.8293,2.056,5.79,1111122 
DISL,ioos:station:DISL:BSCA:1,2017-06-02T17:00:00Z,30.3288,-87.8293,2.049,5.49,1111122 
DISL,ioos:station:DISL:BSCA:1,2017-06-02T17:30:00Z,30.3288,-87.8293,2.041,5.3,1111122 
DISL,ioos:station:DISL:BSCA:1,2017-06-02T18:00:00Z,30.3288,-87.8293,2.043,5.36,1111122 
DISL,ioos:station:DISL:BSCA:1,2017-06-02T18:30:00Z,30.3288,-87.8293,2.014,5.38,1111122 
DISL,ioos:station:DISL:BSCA:1,2017-06-02T19:00:00Z,30.3288,-87.8293,2.008,5.12,1111122 
DISL,ioos:station:DISL:BSCA:1,2017-06-02T19:30:00Z,30.3288,-87.8293,2.007,4.36,1111122 
DISL,ioos:station:DISL:BSCA:1,2017-06-02T20:00:00Z,30.3288,-87.8293,2.0,4.07,1111122 
DISL,ioos:station:DISL:BSCA:1,2017-06-02T20:30:00Z,30.3288,-87.8293,2.001,3.95,1111122 
DISL,ioos:station:DISL:BSCA:1,2017-06-02T21:00:00Z,30.3288,-87.8293,2.005,3.97,1111122 
DISL,ioos:station:DISL:BSCA:1,2017-06-02T21:30:00Z,30.3288,-87.8293,2.014,3.96,1111122 
DISL,ioos:station:DISL:BSCA:1,2017-06-02T22:00:00Z,30.3288,-87.8293,2.004,3.95,1111122 
DISL,ioos:station:DISL:BSCA:1,2017-06-02T22:30:00Z,30.3288,-87.8293,2.015,3.9,1111122 
DISL,ioos:station:DISL:BSCA:1,2017-06-02T23:00:00Z,30.3288,-87.8293,2.015,3.9,1111122 
DISL,ioos:station:DISL:BSCA:1,2017-06-02T23:30:00Z,30.3288,-87.8293,2.04,3.84,1111122 
DISL,ioos:station:DISL:BSCA:1,2017-06-03T00:00:00Z,30.3288,-87.8293,2.041,3.75,1111122 
DISL,ioos:station:DISL:BSCA:1,2017-06-03T00:30:00Z,30.3288,-87.8293,2.035,3.69,1111122 
DISL,ioos:station:DISL:BSCA:1,2017-06-03T01:00:00Z,30.3288,-87.8293,2.031,3.67,1111122 
DISL,ioos:station:DISL:BSCA:1,2017-06-03T01:30:00Z,30.3288,-87.8293,2.023,3.7,1111122 
DISL,ioos:station:DISL:BSCA:1,2017-06-03T02:00:00Z,30.3288,-87.8293,2.008,3.66,1111122 
DISL,ioos:station:DISL:BSCA:1,2017-06-03T02:30:00Z,30.3288,-87.8293,2.003,3.66,1111122 
DISL,ioos:station:DISL:BSCA:1,2017-06-03T03:00:00Z,30.3288,-87.8293,1.992,3.65,1111122 
DISL,ioos:station:DISL:BSCA:1,2017-06-03T03:30:00Z,30.3288,-87.8293,1.978,3.68,1111122 
DISL,ioos:station:DISL:BSCA:1,2017-06-03T04:00:00Z,30.3288,-87.8293,1.958,3.68,1111122 
DISL,ioos:station:DISL:BSCA:1,2017-06-03T04:30:00Z,30.3288,-87.8293,1.944,3.69,1111122 
DISL,ioos:station:DISL:BSCA:1,2017-06-03T05:00:00Z,30.3288,-87.8293,1.921,3.73,1111122 
DISL,ioos:station:DISL:BSCA:1,2017-06-03T05:30:00Z,30.3288,-87.8293,1.914,3.68,1111122 
DISL,ioos:station:DISL:BSCA:1,2017-06-03T06:00:00Z,30.3288,-87.8293,1.892,3.67,1111122 
DISL,ioos:station:DISL:BSCA:1,2017-06-03T06:30:00Z,30.3288,-87.8293,1.879,3.69,1111122 
DISL,ioos:station:DISL:BSCA:1,2017-06-03T07:00:00Z,30.3288,-87.8293,1.885,3.62,1111122 
DISL,ioos:station:DISL:BSCA:1,2017-06-03T07:30:00Z,30.3288,-87.8293,1.9,3.54,1111122 
DISL,ioos:station:DISL:BSCA:1,2017-06-03T08:00:00Z,30.3288,-87.8293,1.909,3.5,1111122 
DISL,ioos:station:DISL:BSCA:1,2017-06-03T08:30:00Z,30.3288,-87.8293,1.938,3.48,1111122 
DISL,ioos:station:DISL:BSCA:1,2017-06-03T09:00:00Z,30.3288,-87.8293,1.961,3.48,1111122 
DISL,ioos:station:DISL:BSCA:1,2017-06-03T09:30:00Z,30.3288,-87.8293,1.996,3.5,1111122 
DISL,ioos:station:DISL:BSCA:1,2017-06-03T10:00:00Z,30.3288,-87.8293,2.023,3.47,1111122 
DISL,ioos:station:DISL:BSCA:1,2017-06-03T10:30:00Z,30.3288,-87.8293,2.053,3.5,1111122 
DISL,ioos:station:DISL:BSCA:1,2017-06-03T11:00:00Z,30.3288,-87.8293,2.066,3.46,1111122 
DISL,ioos:station:DISL:BSCA:1,2017-06-03T11:30:00Z,30.3288,-87.8293,2.063,3.39,1111122 
DISL,ioos:station:DISL:BSCA:1,2017-06-03T12:00:00Z,30.3288,-87.8293,2.055,3.37,1111122 
DISL,ioos:station:DISL:BSCA:1,2017-06-03T12:30:00Z,30.3288,-87.8293,2.07,3.39,1111122 
DISL,ioos:station:DISL:BSCA:1,2017-06-03T13:00:00Z,30.3288,-87.8293,2.085,3.57,1111122 
DISL,ioos:station:DISL:BSCA:1,2017-06-03T13:30:00Z,30.3288,-87.8293,2.113,3.52,1111122 
DISL,ioos:station:DISL:BSCA:1,2017-06-03T14:00:00Z,30.3288,-87.8293,2.121,3.59,1111122 
DISL,ioos:station:DISL:BSCA:1,2017-06-03T14:30:00Z,30.3288,-87.8293,2.125,3.47,1111122 
DISL,ioos:station:DISL:BSCA:1,2017-06-03T15:00:00Z,30.3288,-87.8293,2.126,3.44,1111122 
DISL,ioos:station:DISL:BSCA:1,2017-06-03T15:30:00Z,30.3288,-87.8293,2.115,3.46,1111122 
DISL,ioos:station:DISL:BSCA:1,2017-06-03T16:00:00Z,30.3288,-87.8293,2.098,3.45,1111122 
DISL,ioos:station:DISL:BSCA:1,2017-06-03T16:30:00Z,30.3288,-87.8293,2.086,3.4,1111122 
DISL,ioos:station:DISL:BSCA:1,2017-06-03T17:00:00Z,30.3288,-87.8293,2.06,3.37,1111122 
DISL,ioos:station:DISL:BSCA:1,2017-06-03T17:30:00Z,30.3288,-87.8293,2.041,3.36,1111122 
DISL,ioos:station:DISL:BSCA:1,2017-06-03T18:00:00Z,30.3288,-87.8293,2.019,3.42,1111122 
DISL,ioos:station:DISL:BSCA:1,2017-06-03T18:30:00Z,30.3288,-87.8293,1.999,3.42,1111122 
DISL,ioos:station:DISL:BSCA:1,2017-06-03T19:00:00Z,30.3288,-87.8293,1.989,3.38,1111122 
DISL,ioos:station:DISL:BSCA:1,2017-06-03T19:30:00Z,30.3288,-87.8293,1.969,3.33,1111122 
DISL,ioos:station:DISL:BSCA:1,2017-06-03T20:00:00Z,30.3288,-87.8293,1.959,3.25,1111122 
DISL,ioos:station:DISL:BSCA:1,2017-06-03T20:30:00Z,30.3288,-87.8293,1.939,3.27,1111122 
DISL,ioos:station:DISL:BSCA:1,2017-06-03T21:00:00Z,30.3288,-87.8293,1.93,3.33,1111122 
DISL,ioos:station:DISL:BSCA:1,2017-06-03T21:30:00Z,30.3288,-87.8293,1.92,3.39,1111122 
DISL,ioos:station:DISL:BSCA:1,2017-06-03T22:00:00Z,30.3288,-87.8293,1.91,3.43,1111122 
DISL,ioos:station:DISL:BSCA:1,2017-06-03T22:30:00Z,30.3288,-87.8293,1.913,3.37,1111122 
DISL,ioos:station:DISL:BSCA:1,2017-06-03T23:00:00Z,30.3288,-87.8293,1.917,3.31,1111122 
DISL,ioos:station:DISL:BSCA:1,2017-06-03T23:30:00Z,30.3288,-87.8293,1.917,3.46,1111122 
DISL,ioos:station:DISL:BSCA:1,2017-06-04T00:00:00Z,30.3288,-87.8293,1.909,3.52,1111122 
DISL,ioos:station:DISL:BSCA:1,2017-06-04T00:30:00Z,30.3288,-87.8293,1.884,3.58,1111122 
DISL,ioos:station:DISL:BSCA:1,2017-06-04T01:00:00Z,30.3288,-87.8293,1.889,3.65,1111122 
DISL,ioos:station:DISL:BSCA:1,2017-06-04T01:30:00Z,30.3288,-87.8293,1.915,3.36,1111122 
DISL,ioos:station:DISL:BSCA:1,2017-06-04T02:00:00Z,30.3288,-87.8293,1.89,3.7,1111122 
DISL,ioos:station:DISL:BSCA:1,2017-06-04T02:30:00Z,30.3288,-87.8293,1.863,3.71,1111122 
DISL,ioos:station:DISL:BSCA:1,2017-06-04T03:00:00Z,30.3288,-87.8293,1.834,3.67,1111122 
DISL,ioos:station:DISL:BSCA:1,2017-06-04T03:30:00Z,30.3288,-87.8293,1.838,3.54,1111122 
DISL,ioos:station:DISL:BSCA:1,2017-06-04T04:00:00Z,30.3288,-87.8293,1.83,3.29,1111122 
DISL,ioos:station:DISL:BSCA:1,2017-06-04T04:30:00Z,30.3288,-87.8293,1.859,3.63,1111122 
DISL,ioos:station:DISL:BSCA:1,2017-06-04T05:00:00Z,30.3288,-87.8293,1.883,3.82,1111122 
DISL,ioos:station:DISL:BSCA:1,2017-06-04T05:30:00Z,30.3288,-87.8293,1.916,3.62,1111122 
DISL,ioos:station:DISL:BSCA:1,2017-06-04T06:00:00Z,30.3288,-87.8293,1.928,3.54,1111122 
DISL,ioos:station:DISL:BSCA:1,2017-06-04T06:30:00Z,30.3288,-87.8293,1.945,3.43,1111122 
DISL,ioos:station:DISL:BSCA:1,2017-06-04T07:00:00Z,30.3288,-87.8293,1.962,3.23,1111122 
DISL,ioos:station:DISL:BSCA:1,2017-06-04T07:30:00Z,30.3288,-87.8293,1.98,3.01,1111122 
DISL,ioos:station:DISL:BSCA:1,2017-06-04T08:00:00Z,30.3288,-87.8293,2.008,2.94,1111122 
DISL,ioos:station:DISL:BSCA:1,2017-06-04T08:30:00Z,30.3288,-87.8293,2.039,2.88,1111122 
DISL,ioos:station:DISL:BSCA:1,2017-06-04T09:00:00Z,30.3288,-87.8293,2.068,3.0,1111122 
DISL,ioos:station:DISL:BSCA:1,2017-06-04T09:30:00Z,30.3288,-87.8293,2.086,3.0,1111122 
DISL,ioos:station:DISL:BSCA:1,2017-06-04T10:00:00Z,30.3288,-87.8293,2.095,2.88,1111122 
DISL,ioos:station:DISL:BSCA:1,2017-06-04T10:30:00Z,30.3288,-87.8293,2.107,2.97,1111122 
DISL,ioos:station:DISL:BSCA:1,2017-06-04T11:00:00Z,30.3288,-87.8293,2.115,2.96,1111122 
DISL,ioos:station:DISL:BSCA:1,2017-06-04T11:30:00Z,30.3288,-87.8293,2.122,2.92,1111122 
DISL,ioos:station:DISL:BSCA:1,2017-06-04T12:00:00Z,30.3288,-87.8293,2.125,3.1,1111122 
DISL,ioos:station:DISL:BSCA:1,2017-06-04T12:30:00Z,30.3288,-87.8293,2.111,3.43,1111122 
DISL,ioos:station:DISL:BSCA:1,2017-06-04T13:00:00Z,30.3288,-87.8293,2.105,3.59,1111122 
DISL,ioos:station:DISL:BSCA:1,2017-06-04T13:30:00Z,30.3288,-87.8293,2.091,3.61,1111122 
DISL,ioos:station:DISL:BSCA:1,2017-06-04T14:00:00Z,30.3288,-87.8293,2.119,3.34,1111122 
DISL,ioos:station:DISL:BSCA:1,2017-06-04T14:30:00Z,30.3288,-87.8293,2.113,3.35,1111122 
DISL,ioos:station:DISL:BSCA:1,2017-06-04T15:00:00Z,30.3288,-87.8293,2.124,3.35,1111122 
DISL,ioos:station:DISL:BSCA:1,2017-06-04T15:30:00Z,30.3288,-87.8293,2.126,3.49,1111122 
DISL,ioos:station:DISL:BSCA:1,2017-06-04T16:00:00Z,30.3288,-87.8293,2.117,3.68,1111122 
DISL,ioos:station:DISL:BSCA:1,2017-06-04T16:30:00Z,30.3288,-87.8293,2.103,3.49,1111122 
DISL,ioos:station:DISL:BSCA:1,2017-06-04T17:00:00Z,30.3288,-87.8293,2.083,3.76,1111122 
DISL,ioos:station:DISL:BSCA:1,2017-06-04T17:30:00Z,30.3288,-87.8293,2.059,3.5,1111122 
DISL,ioos:station:DISL:BSCA:1,2017-06-04T18:00:00Z,30.3288,-87.8293,2.031,3.33,1111122 
DISL,ioos:station:DISL:BSCA:1,2017-06-04T18:30:00Z,30.3288,-87.8293,2.004,3.4,1111122 
DISL,ioos:station:DISL:BSCA:1,2017-06-04T19:00:00Z,30.3288,-87.8293,1.985,3.42,1111122 
DISL,ioos:station:DISL:BSCA:1,2017-06-04T19:30:00Z,30.3288,-87.8293,1.984,3.38,1111122 
DISL,ioos:station:DISL:BSCA:1,2017-06-04T20:00:00Z,30.3288,-87.8293,1.982,3.55,1111122 
DISL,ioos:station:DISL:BSCA:1,2017-06-04T20:30:00Z,30.3288,-87.8293,1.988,3.53,1111122 
DISL,ioos:station:DISL:BSCA:1,2017-06-04T21:00:00Z,30.3288,-87.8293,1.982,3.38,1111122 
DISL,ioos:station:DISL:BSCA:1,2017-06-04T21:30:00Z,30.3288,-87.8293,1.971,3.35,1111122 
DISL,ioos:station:DISL:BSCA:1,2017-06-04T22:00:00Z,30.3288,-87.8293,1.969,3.24,1111122 
DISL,ioos:station:DISL:BSCA:1,2017-06-04T22:30:00Z,30.3288,-87.8293,1.964,3.24,1111122 
DISL,ioos:station:DISL:BSCA:1,2017-06-04T23:00:00Z,30.3288,-87.8293,1.974,3.23,1111122 
DISL,ioos:station:DISL:BSCA:1,2017-06-04T23:30:00Z,30.3288,-87.8293,1.98,3.21,1111122 
DISL,ioos:station:DISL:BSCA:1,2017-06-05T00:00:00Z,30.3288,-87.8293,1.974,3.26,1111122 
DISL,ioos:station:DISL:BSCA:1,2017-06-05T00:30:00Z,30.3288,-87.8293,1.959,3.08,1111122 
DISL,ioos:station:DISL:BSCA:1,2017-06-05T01:00:00Z,30.3288,-87.8293,1.946,3.04,1111122 
DISL,ioos:station:DISL:BSCA:1,2017-06-05T01:30:00Z,30.3288,-87.8293,1.944,3.15,1111122 
DISL,ioos:station:DISL:BSCA:1,2017-06-05T02:00:00Z,30.3288,-87.8293,1.942,3.02,1111122 
DISL,ioos:station:DISL:BSCA:1,2017-06-05T02:30:00Z,30.3288,-87.8293,1.95,3.1,1111122 
DISL,ioos:station:DISL:BSCA:1,2017-06-05T03:00:00Z,30.3288,-87.8293,1.964,2.94,1111122 
DISL,ioos:station:DISL:BSCA:1,2017-06-05T03:30:00Z,30.3288,-87.8293,1.978,2.94,1111122 
DISL,ioos:station:DISL:BSCA:1,2017-06-05T04:00:00Z,30.3288,-87.8293,1.989,2.92,1111122 
DISL,ioos:station:DISL:BSCA:1,2017-06-05T04:30:00Z,30.3288,-87.8293,2.011,2.89,1111122 
DISL,ioos:station:DISL:BSCA:1,2017-06-05T05:00:00Z,30.3288,-87.8293,2.021,2.9,1111122 
DISL,ioos:station:DISL:BSCA:1,2017-06-05T05:30:00Z,30.3288,-87.8293,2.044,2.89,1111122 
DISL,ioos:station:DISL:BSCA:1,2017-06-05T06:00:00Z,30.3288,-87.8293,2.054,2.97,1111122 
DISL,ioos:station:DISL:BSCA:1,2017-06-05T06:30:00Z,30.3288,-87.8293,2.06,3.02,1111122 
DISL,ioos:station:DISL:BSCA:1,2017-06-05T07:00:00Z,30.3288,-87.8293,2.081,3.1,1111122 
DISL,ioos:station:DISL:BSCA:1,2017-06-05T07:30:00Z,30.3288,-87.8293,2.091,3.16,1111122 
DISL,ioos:station:DISL:BSCA:1,2017-06-05T08:00:00Z,30.3288,-87.8293,2.111,3.16,1111122 
DISL,ioos:station:DISL:BSCA:1,2017-06-05T08:30:00Z,30.3288,-87.8293,2.129,3.24,1111122 
DISL,ioos:station:DISL:BSCA:1,2017-06-05T09:00:00Z,30.3288,-87.8293,2.158,3.27,1111122 
DISL,ioos:station:DISL:BSCA:1,2017-06-05T09:30:00Z,30.3288,-87.8293,2.185,3.19,1111122 
DISL,ioos:station:DISL:BSCA:1,2017-06-05T10:00:00Z,30.3288,-87.8293,2.212,3.1,1111122 
DISL,ioos:station:DISL:BSCA:1,2017-06-05T10:30:00Z,30.3288,-87.8293,2.233,3.05,1111122 
DISL,ioos:station:DISL:BSCA:1,2017-06-05T11:00:00Z,30.3288,-87.8293,2.252,3.05,1111122 
DISL,ioos:station:DISL:BSCA:1,2017-06-05T11:30:00Z,30.3288,-87.8293,2.282,3.13,1111122 
DISL,ioos:station:DISL:BSCA:1,2017-06-05T12:00:00Z,30.3288,-87.8293,2.267,3.24,1111122 
DISL,ioos:station:DISL:BSCA:1,2017-06-05T12:30:00Z,30.3288,-87.8293,2.274,3.29,1111122 
DISL,ioos:station:DISL:BSCA:1,2017-06-05T13:00:00Z,30.3288,-87.8293,2.25,3.38,1111122 
DISL,ioos:station:DISL:BSCA:1,2017-06-05T13:30:00Z,30.3288,-87.8293,2.231,3.4,1111122 
DISL,ioos:station:DISL:BSCA:1,2017-06-05T14:00:00Z,30.3288,-87.8293,2.21,3.44,1111122 
DISL,ioos:station:DISL:BSCA:1,2017-06-05T14:30:00Z,30.3288,-87.8293,2.184,3.34,1111122 
DISL,ioos:station:DISL:BSCA:1,2017-06-05T15:00:00Z,30.3288,-87.8293,2.18,3.34,1111122 
DISL,ioos:station:DISL:BSCA:1,2017-06-05T15:30:00Z,30.3288,-87.8293,2.162,3.3,1111122 
DISL,ioos:station:DISL:BSCA:1,2017-06-05T16:00:00Z,30.3288,-87.8293,2.166,3.22,1111122 
DISL,ioos:station:DISL:BSCA:1,2017-06-05T16:30:00Z,30.3288,-87.8293,2.153,3.27,1111122 
DISL,ioos:station:DISL:BSCA:1,2017-06-05T17:00:00Z,30.3288,-87.8293,2.152,3.21,1111122 
DISL,ioos:station:DISL:BSCA:1,2017-06-05T17:30:00Z,30.3288,-87.8293,2.122,3.18,1111122 
DISL,ioos:station:DISL:BSCA:1,2017-06-05T18:00:00Z,30.3288,-87.8293,2.124,3.18,1111122 
DISL,ioos:station:DISL:BSCA:1,2017-06-05T18:30:00Z,30.3288,-87.8293,2.105,3.2,1111122 
DISL,ioos:station:DISL:BSCA:1,2017-06-05T19:00:00Z,30.3288,-87.8293,2.089,3.22,1111122 
DISL,ioos:station:DISL:BSCA:1,2017-06-05T19:30:00Z,30.3288,-87.8293,2.059,3.22,1111122 
DISL,ioos:station:DISL:BSCA:1,2017-06-05T20:00:00Z,30.3288,-87.8293,2.049,3.21,1111122 
DISL,ioos:station:DISL:BSCA:1,2017-06-05T20:30:00Z,30.3288,-87.8293,2.012,3.22,1111122 
DISL,ioos:station:DISL:BSCA:1,2017-06-05T21:30:00Z,30.3288,-87.8293,1.992,3.2,1111122 
DISL,ioos:station:DISL:BSCA:1,2017-06-05T22:00:00Z,30.3288,-87.8293,1.98,3.23,1111122 
DISL,ioos:station:DISL:BSCA:1,2017-06-05T22:30:00Z,30.3288,-87.8293,1.967,3.23,1111122 
DISL,ioos:station:DISL:BSCA:1,2017-06-05T23:00:00Z,30.3288,-87.8293,1.979,3.25,1111122 
DISL,ioos:station:DISL:BSCA:1,2017-06-05T23:30:00Z,30.3288,-87.8293,1.999,3.26,1111122 
DISL,ioos:station:DISL:BSCA:1,2017-06-06T00:00:00Z,30.3288,-87.8293,1.983,3.27,1111122 
DISL,ioos:station:DISL:BSCA:1,2017-06-06T00:30:00Z,30.3288,-87.8293,1.973,3.3,1111122 
DISL,ioos:station:DISL:BSCA:1,2017-06-06T01:00:00Z,30.3288,-87.8293,1.989,3.34,1111122 
DISL,ioos:station:DISL:BSCA:1,2017-06-06T01:30:00Z,30.3288,-87.8293,1.995,3.4,1111122 
DISL,ioos:station:DISL:BSCA:1,2017-06-06T02:00:00Z,30.3288,-87.8293,1.991,3.39,1111122 
DISL,ioos:station:DISL:BSCA:1,2017-06-06T02:30:00Z,30.3288,-87.8293,1.983,3.31,1111122 
DISL,ioos:station:DISL:BSCA:1,2017-06-06T03:00:00Z,30.3288,-87.8293,1.974,3.34,1111122 
DISL,ioos:station:DISL:BSCA:1,2017-06-06T03:30:00Z,30.3288,-87.8293,1.967,3.33,1111122 
DISL,ioos:station:DISL:BSCA:1,2017-06-06T04:00:00Z,30.3288,-87.8293,1.982,3.33,1111122 
DISL,ioos:station:DISL:BSCA:1,2017-06-06T04:30:00Z,30.3288,-87.8293,1.989,3.34,1111122 
DISL,ioos:station:DISL:BSCA:1,2017-06-06T05:30:00Z,30.3288,-87.8293,2.04,3.41,1111122 
DISL,ioos:station:DISL:BSCA:1,2017-06-06T06:00:00Z,30.3288,-87.8293,2.071,3.36,1111122 
DISL,ioos:station:DISL:BSCA:1,2017-06-06T06:30:00Z,30.3288,-87.8293,2.098,3.39,1111122 
DISL,ioos:station:DISL:BSCA:1,2017-06-06T07:00:00Z,30.3288,-87.8293,2.109,3.38,1111122 
DISL,ioos:station:DISL:BSCA:1,2017-06-06T07:30:00Z,30.3288,-87.8293,2.176,3.35,1111122 
DISL,ioos:station:DISL:BSCA:1,2017-06-06T08:00:00Z,30.3288,-87.8293,2.148,3.39,1111122 
DISL,ioos:station:DISL:BSCA:1,2017-06-06T08:30:00Z,30.3288,-87.8293,2.114,3.34,1111122 
DISL,ioos:station:DISL:BSCA:1,2017-06-06T09:00:00Z,30.3288,-87.8293,2.082,3.32,1111122 
DISL,ioos:station:DISL:BSCA:1,2017-06-06T09:30:00Z,30.3288,-87.8293,2.122,3.32,1111122 
DISL,ioos:station:DISL:BSCA:1,2017-06-06T10:00:00Z,30.3288,-87.8293,2.162,3.32,1111122 
DISL,ioos:station:DISL:BSCA:1,2017-06-06T10:30:00Z,30.3288,-87.8293,2.24,3.25,1111122 
DISL,ioos:station:DISL:BSCA:1,2017-06-06T11:00:00Z,30.3288,-87.8293,2.274,3.2,1111122 
DISL,ioos:station:DISL:BSCA:1,2017-06-06T11:30:00Z,30.3288,-87.8293,2.313,3.14,1111122 
DISL,ioos:station:DISL:BSCA:1,2017-06-06T12:00:00Z,30.3288,-87.8293,2.324,3.13,1111122 
DISL,ioos:station:DISL:BSCA:1,2017-06-06T12:30:00Z,30.3288,-87.8293,2.329,3.11,1111122 
DISL,ioos:station:DISL:BSCA:1,2017-06-06T13:00:00Z,30.3288,-87.8293,2.322,3.1,1111122 
DISL,ioos:station:DISL:BSCA:1,2017-06-06T13:30:00Z,30.3288,-87.8293,2.325,3.07,1111122 
DISL,ioos:station:DISL:BSCA:1,2017-06-06T14:00:00Z,30.3288,-87.8293,2.335,3.05,1111122 
DISL,ioos:station:DISL:BSCA:1,2017-06-06T14:30:00Z,30.3288,-87.8293,2.313,3.02,1111122 
DISL,ioos:station:DISL:BSCA:1,2017-06-06T15:00:00Z,30.3288,-87.8293,2.313,3.0,1111122 
DISL,ioos:station:DISL:BSCA:1,2017-06-06T15:30:00Z,30.3288,-87.8293,2.302,3.03,1111122 
DISL,ioos:station:DISL:BSCA:1,2017-06-06T16:00:00Z,30.3288,-87.8293,2.323,3.04,1111122 
DISL,ioos:station:DISL:BSCA:1,2017-06-06T16:30:00Z,30.3288,-87.8293,2.32,3.15,1111122 